Location: Unspecified
(0.0000°N, 0.0000°E)
Time: 17:54:25
(UTC+00:00)

STARLINK 1039 - Pass Details

Date: 16 January 2020
Orbit: 548 x 551 km, 53.0° (Epoch: 17 January)

Event Time Altitude Azimuth Distance (km) Brightness Sun altitude
Rises 18:30:22 0° 336° (NNW) 2,698 7.2 -4.8°
Reaches altitude 10° 18:32:38 10° 342° (NNW) 1,809 6.2 -5.4°
Maximum altitude 18:36:36 47° 56° (NE) 728 3.8 -6.3°
Drops below altitude 10° 18:40:35 10° 131° (SE) 1,818 6.0 -7.2°
Sets 18:42:53 0° 136° (SE) 2,714 6.9 -7.7°
